Home > Weather > Eidsvoll > Past weeks

Flag for Norway Past Weather in Eidsvoll, Norway — Yesterday and Last 2 Weeks

Now
64 °F

Thunderstorms. Scattered clouds.


Feels Like: 64 °F
Forecast: 49 / 59 °F
Wind: 9 mph from Southwest

Location: Oslo Gardermoen Airport

Current Time: Jul 26, 2016 at 7:58:46 PM

Latest Report: Jul 26, 2016 at 7:20 PM


Visibility: N/A

Pressure: 29.92 "Hg

Humidity: 68%

Dew Point: 54 °F

Location of EidsvollLocation

Past Weather in Eidsvoll — Graph

°F

Eidsvoll Temperature Yesterday

Maximum temperature yesterday: 77 °F (at 1:20 PM)
Minimum temperature yesterday: 57 °F (at 4:20 AM)
Average temperature yesterday: 66 °F

High & Low Weather Summary for the Past Weeks

 TemperatureHumidityPressure
High79 °F (Jul 21, 4:50 PM)100% (Jul 13, 1:20 AM)30.12 "Hg (Jul 13, 1:20 AM)
Low46 °F (Jul 19, 4:20 AM)35% (Jul 16, 5:50 PM)29.42 "Hg (Jul 11, 6:20 PM)
Average63 °F68%29.90 "Hg
* Reported Jul 11 6:20 PM — Jul 26 6:20 PM, Eidsvoll, Weather by CustomWeather, © 2016

Note: Actual official high and low records may vary slightly from our data, if they occured in-between our weather recording intervals... More about our weather records

Advertising

Eidsvoll Weather History for the Previous 24 Hours

Scroll right to see more
 ConditionsComfort  
Time TempWeatherWind HumidityBarometerVisibility
6:20 PM
Tue, Jul 26
66 °FScattered showers. Scattered clouds.13 mph73%29.89 "HgN/A
5:50 PM64 °FPassing clouds.8 mph78%29.89 "HgN/A
5:20 PM63 °FRain showers. Broken clouds.3 mph77%29.89 "HgN/A
4:50 PM64 °FScattered showers. Broken clouds.7 mph68%29.89 "HgN/A
4:20 PM63 °FThundershowers. Broken clouds.5 mph73%29.89 "HgN/A
3:50 PM59 °FCool.9 mph72%29.89 "HgN/A
3:20 PM68 °FScattered showers. Scattered clouds.18 mph60%29.86 "HgN/A
2:50 PM66 °FScattered clouds.20 mph60%29.86 "HgN/A
2:20 PM68 °FScattered clouds.18 mph56%29.86 "HgN/A
1:50 PM68 °FScattered clouds.17 mph60%29.86 "HgN/A
1:20 PM68 °FScattered clouds.15 mph60%29.89 "HgN/A
12:50 PM66 °FBroken clouds.15 mph60%29.89 "HgN/A
12:20 PM68 °FBroken clouds.16 mph64%29.89 "HgN/A
11:50 AM66 °FBroken clouds.16 mph64%29.89 "HgN/A
11:20 AM66 °FBroken clouds.17 mph64%29.89 "HgN/A
10:50 AM66 °FBroken clouds.17 mph73%29.89 "HgN/A
10:20 AM66 °FBroken clouds.13 mph73%29.89 "HgN/A
9:50 AM64 °FBroken clouds.13 mph83%29.89 "HgN/A
9:20 AM63 °FBroken clouds.10 mph88%29.89 "HgN/A
8:50 AM61 °FMore clouds than sun.8 mph94%29.89 "Hg6 mi
8:20 AM61 °FSprinkles. Low clouds.7 mph94%29.89 "Hg6 mi
7:50 AM61 °FSprinkles. More clouds than sun.6 mph94%29.89 "HgN/A
7:20 AM61 °FSprinkles. More clouds than sun.5 mph88%29.89 "HgN/A
6:50 AM61 °FRain showers. Broken clouds.5 mph88%29.89 "Hg3 mi
6:20 AM61 °FSprinkles. Broken clouds.1 mph88%29.89 "Hg4 mi
5:50 AM59 °FRain. Broken clouds.5 mph94%29.89 "HgN/A
5:20 AM61 °FLots of rain. Passing clouds.7 mph88%29.89 "Hg2 mi
4:50 AM61 °FLight rain. Passing clouds.3 mph88%29.92 "HgN/A
4:20 AM61 °FPartly cloudy.3 mph88%29.92 "HgN/A
3:50 AM61 °FPassing clouds.5 mph88%29.92 "HgN/A
3:20 AM61 °FPassing clouds.6 mph88%29.92 "HgN/A
2:50 AM61 °FPassing clouds.5 mph88%29.95 "HgN/A
2:20 AM61 °FPassing clouds.7 mph88%29.95 "HgN/A
1:50 AM61 °FPassing clouds.7 mph88%29.95 "HgN/A
1:20 AM61 °FPassing clouds.9 mph88%29.95 "HgN/A
12:50 AM63 °FPassing clouds.8 mph83%29.95 "HgN/A
12:20 AM61 °FPartly cloudy.8 mph88%29.95 "HgN/A
11:50 PM
Mon, Jul 25
63 °FScattered showers. Clear.5 mph83%29.95 "HgN/A
11:20 PM63 °FScattered showers. Mostly cloudy.7 mph83%29.95 "HgN/A
10:50 PM63 °FScattered showers. Partly sunny.5 mph83%29.95 "HgN/A
10:20 PM63 °FScattered showers. Partly sunny.6 mph83%29.98 "HgN/A
9:50 PM63 °FScattered showers. Clear.7 mph83%29.95 "HgN/A
9:20 PM64 °FSprinkles. Clear.5 mph78%29.95 "HgN/A
8:50 PM64 °FSprinkles. Broken clouds.7 mph78%29.98 "HgN/A
8:20 PM64 °FSprinkles. Broken clouds.8 mph73%29.98 "HgN/A
7:50 PM66 °FScattered showers. Clear.7 mph68%29.98 "HgN/A
7:20 PM66 °FScattered showers. Clear.5 mph64%29.98 "HgN/A
Weather by CustomWeather, © 2016

See weather overviewHow to use our weather pages